Погода в Балаганске

Хотите узнать прогноз погоды в Балаганске? Тогда Вам сюда: Погода в Балаганске

Поиск расширенной информации на нашем сайте:

Полезная информация:

Новости сайта



02.01.2020
Опубликован Долгосрочный прогноз погоды по городам России и ближнего зарубежья на январь 2020 года.
Карты: Прогноз на январь и февраль 2020 года, Сравнение прогнозируемой аномалии приземной температуры воздуха на январь 2020 года по разным моделям.




Погода в Балаганске - сегодня

Время (UTC), дата Ветер
(°,м/с) 
Видим.   Явления Облачность Т
(°С)
Тd
(°С)
f(%) Тe
(°С)
Pmin
(гПа)
dP
(гПа)
Po
(мм)
O2
(г/м3)
Тmin Tmax R s Состояние
почвы
21 29.11.20 130 (ЮВ) н/о  слаб. снег  10/3 600 м средняя, верхняя 
[Sc|Ac As|Cs]
-14.8 -16.7 85 -15  1043.9  -0.5  740  317           
00 30.11.20 070 (В) н/о  {снег}  10/3 600 м средняя, верхняя 
[Sc|Ac trans|Cs]
-17.8 -19.9 84 -18  1044.7  0.1  740  321  -17.8    12  равномерный
сухой снег
100% 
03 30.11.20 110 (В) 10 км  слаб. снег  10/3 600 м средняя 
[Sc|Ac As]
-15.2 -17.2 85 -19  1043.9  0.1  740  317  -17.8         
06 30.11.20 110 (В) 20000 м  {снег}  10/3 600 м средняя, верхняя 
[Sc|Ac trans|Cs]
-14.3 -16.4 84 -16  1043.3  -0.5  740  316           
09 30.11.20 110 (В) 20000 м  {снег}  10/3 600 м средняя 
[Sc|Ac As]
-13.7 -15.5 86 -16  1043.7  0.6  740  315           
12 30.11.20 140 (ЮВ) н/о  {снег}  10/3 600 м средняя 
[Sc|Ac As]
-13.9 -15.5 88 -14  1044.4  0.6  741  316    -13.2  0.2     
15 30.11.20 100 (В) н/о    10/3 600 м средняя, верхняя 
[Sc|Ac trans|Cs]
-15.6 -17.4 86 -18  1044.6  -0.2  741  318           
18 30.11.20 110 (В) н/о    10/3 600 м средняя, верхняя 
[Sc|Ac trans|Cs]
-13.9 -15.6 87 -17  1043.8  -0.4  740  316           
21 30.11.20 120 (ЮВ) н/о    10/3 600 м средняя, верхняя 
[Sc|Ac trans|Cs]
-15.2 -17 86 -19  1043.3  -0.8  740  317           
00 01.12.20 тихо ()   н/о    10/3 600 м средняя 
[Sc|Ac As]
-17.2 -19.2 84 -17  1043.4  -0.3  739  319  -17.4      13  равномерный
сухой снег
100% 
03 01.12.20 110 (В) 20000 м    10/3 600 м средняя, верхняя 
[Sc|Ac trans|Cs]
-15.7 -17.7 85 -19  1043  739  318  -17.7         
06 01.12.20 100 (В) 20000 м    10/3 600 м средняя 
[Sc|Ac As]
-13.1 -15.3 84 -15  1042.1  -0.3  739  314           
09 01.12.20 тихо ()   20000 м    10/3 600 м средняя 
[Sc|Ac As]
-11.9 -13.7 86 -12  1041.6  -0.2  739  313           
12 01.12.20 310 (СЗ) н/о    10/3 600 м средняя, верхняя 
[Sc|Ac trans|Cs]
-10.7 -13 83 -13  1042.3  0.9  740  311    -9.4       
15 01.12.20 290 (З) н/о  слаб. снег  10/3 600 м средняя 
[Sc|Ac As]
-10.6 -12.9 83 -12  1042.9  0.5  740  311           
18 01.12.20 290 (З) н/о  слаб. снег  10/3 600 м средняя 
[Sc|Ac As]
-10.3 -12.8 82 -12  1043.5  0.7  741  311           
21 01.12.20 230 (ЮЗ) н/о  слаб. снег  10/3 600 м средняя 
[Sc|Ac As]
-10.7 -12.5 87 -11  1044.2  0.6  741  312           
00 02.12.20 тихо ()   н/о  слаб. снег  10/4 600 м средняя 
[Sc|Ac As]
-11.6 -13.1 89 -12  1045.1  0.6  742  313  -11.7    0.9  14  равномерный
сухой снег
100% 
03 02.12.20 290 (З) 4000 м  слаб. снег  10/3 600 м средняя 
[Sc|Ac As]
-9.4 -11.8 83 -11  1045.8  1.2  742  311  -11.8         
06 02.12.20 310 (СЗ) 10 км  в посл. час снег  10/3 600 м средняя, верхняя 
[Sc|Ac As|Ci sp]
-8.5 -12.4 73 -10  1045.7  742  310           
09 02.12.20 тихо ()   20000 м    4/0 средняя, верхняя 
[Ac lent|Ci fib]
-13.1 -15.3 84 -13  1047.3  0.6  743  316           
12 02.12.20 220 (ЮЗ) н/о    3/0 верхняя 
[Cs]
-16.7 -18.5 86 -17  1048.5  0.3  743  320    -8.5  0.4     
15 02.12.20 тихо ()   н/о    ясно 
-20.8 -22.9 83 -21  1049.5  0.1  743  326           
18 02.12.20 110 (В) н/о    6/0 верхняя 
[Cs]
-20.2 -22.3 83 -20  1048.9  -0.4  743  325           
21 02.12.20 160 (Ю) н/о    6/0 верхняя 
[Cs]
-22.7 -25.2 80 -23  1048.9  -0.6  742  328           
Время (UTC), дата Ветер
(°,м/с) 
Видим.   Явления Облачность Т
(°С)
Тd
(°С)
f(%) Тe
(°С)
Pmin
(гПа)
dP
(гПа)
Po
(мм)
O2
(г/м3)
Тmin Tmax R s Состояние
почвы

Для получения пояснительной информации подведите курсор к названию столбца.

ПОГОДА в Балаганске - архив

Всё, что Вы хотите узнать о погоде в Балаганске - удобно и подробно!

Выберите нужную дату (начиная с 1 января 2019* года) и нажмите кнопку "Найти".
Будут отображены архивные сводки погоды по пункту Балаганск, начиная с указанной даты.


Отображать данные в формате CSV (для использования в таблицах Excel)


Внимание! Наш архив погоды предназначен исключительно для личного некоммерческого использования в познавательных целях. Если Вам необходимы официальные справки о состоянии погоды (для производственных, юридических, коммерческих и т.п. целей), обращайтесь в органы Росгидромета.

*Примечание: данная дата относится к архиву по метеостанциям СССР (Россия, СНГ, Балтия).
Архив по метеостанциям Зарубежной Европы и Азии (кроме Китая) хранится 10 дней, по другим регионам земного шара (Китай, Африка, Америка, Австралия, Океания) - 1 день.

Балаганск - район местоположения метеостанции


Название, широта, долгота, высота метеостанции:
Балаганск 54°ш. 103.1°д. 427 м над ур. моря [Российская Федерация]

Дополнительная информация

В oтличие oт бoльшинства пoгoдных сайтoв мы публикуем пoдрoбную метеoинфoрмацию в детальнoм прoфессиoнальнoм фoрмате.

Характеристики температуры и влажнoсти вoздуха измеряются на высoте 2 м в тени вдали oт зданий и деревьев.
Скoрoсть ветра измеряется на высoте 10 м (на урoвне рoста челoвека скoрoсть ветра ниже в 1.5-2 раза). Если метеoстанция нахoдится в гoрoде или в лесу, тo скoрoсть ветра занижена на 2-4 м/с пo сравнению с oткрытым местoм. Скoрoсть ветра над акватoриями крупных рек и oзёр, а также на вершинах хoлмoв на 2-5 м/с выше, чем в oбычных услoвиях.
Атмoсфернoе давление в разных тoчках местнoсти мoжет значительнo oтличаться oт давления на метеoстанции, в зависимoсти oт услoвий рельефа (при пoдъёме на 10 м давление пoнижается примернo на 1 мм рт.ст.).